Regional Weather Roundup
Issued by NWS Green Bay, WI

Home | Current Version | Previous Version | Text Only | Print | Product List | Glossary On
Versions: 1 2 3 4 5 6 7 8 9 10 11 12 13 14 15 16 17 18 19 20 21 22 23 24 25 26 27 28 29 30 31 32 33 34 35 36 37 38 39 40 41 42 43 44 45 46 47 48 49 50
000
ASUS43 KGRB 260500
RWRGRB

NORTH-CENTRAL AND NORTHEAST WISCONSIN REGIONAL WEATHER ROUNDUP
NATIONAL WEATHER SERVICE GREEN BAY WI
1200 AM CDT TUE JUL 26 2016

WIZ005-009-010>012-018-019-260600-
NORTH CENTRAL WISCONSIN

CITY           SKY/WX    TMP DP  RH WIND       PRES   REMARKS
IRONWOOD       CLEAR     63  61  94 CALM      29.99S
MANITOWISH WTR NOT AVBL
ARBOR VITAE    NOT AVBL
EAGLE RIVER    NOT AVBL
LAND O LAKES   NOT AVBL
RHINELANDER    CLEAR     60  57  89 W5        30.07R
PHILLIPS       NOT AVBL
ANTIGO         NOT AVBL
TOMAHAWK       NOT AVBL
MERRILL        NOT AVBL
$$

WIZ013-073-260600-
NORTHEAST WISCONSIN

CITY           SKY/WX    TMP DP  RH WIND       PRES   REMARKS
IRON MOUNTAIN  CLEAR     60  55  83 CALM      30.01R
MARINETTE        N/A    N/A N/A N/A NW3       30.01R
$$

WIZ017-030-035>037-045-260600-
CENTRAL WISCONSIN

CITY           SKY/WX    TMP DP  RH WIND       PRES   REMARKS
MEDFORD        NOT AVBL
WAUSAU         CLEAR     66  61  84 CALM      30.04R
MOSINEE        NOT AVBL
MARSHFIELD     CLEAR     67  61  81 CALM      30.06R
WISC RAPIDS    CLEAR     65  61  87 CALM      30.06S
STEVENS POINT  NOT AVBL
WAUPACA        NOT AVBL
SHAWANO        NOT AVBL
CLINTONVILLE   NOT AVBL
WAUTOMA        CLEAR     64  62  93 CALM      30.05R
$$

WIZ038-039-048-051-260600-
FOX VALLEY

CITY           SKY/WX    TMP DP  RH WIND       PRES   REMARKS
NWS GREEN BAY  CLEAR     68  66  93 CALM      30.01R
APPLETON       NOT AVBL
OSHKOSH        CLEAR     71  61  70 W5        30.03R
FOND DU LAC    CLEAR     68  61  78 W5        30.03R
$$

WIZ022-050-052-260600-
EAST CENTRAL WISCONSIN

CITY           SKY/WX    TMP DP  RH WIND       PRES   REMARKS
EPHRAIM        NOT AVBL
WASHINGTON ISL NOT AVBL
STURGEON BAY   CLEAR     68  63  84 CALM      30.01R
MANITOWOC      NOT AVBL
SHEBOYGAN      CLEAR     64  62  93 CALM      30.03R
$$

LMZ563-521-522-541>543-260600-
LAKESHORE

STATION/POSITION TIME  TEMP    WIND        PRES    VSBY  WAVE
                       AIR SEA DIR/SP/G                  HT/PER
                 (UTC) (F)     (DEG/KT/KT) (MB)    (MI)  (FT/S)
SHEBOYGAN LKSHOR 0400   75     270/  6/  7 1016.1R
KEWAUNEE LKSHORE 0400   71     300/  4/  4 1015.2
ALGOMA MARINA    0413             CALM       N/A
NORTHPORT PIER   0400   71     170/  2/  5 1015.2R
N MID LAKE BUOY  0350   71 70  160/  6/  6 1014.7R         1
S GREEN BAY BUOY 0400   75 74  260/  8/  8   N/A
SISTER BAY LKSHO 0421   68        CALM       N/A
CHAMBERS ISLAND  0400   65     240/  4/  4 1015.6R
MENOMINEE LKSHOR 0400   75     300/  4/  5 1014.7
$$



USA.gov is the U.S. government's official web portal to all federal, state and local government web resources and services.